Departure
Benito Salas Airport
Neiva, CO
cloud Weather
- Wind
- VRB / 2 kt
- Visibility
- 6 SM
- Ceiling
- CAVOK
- Temp / Dew
- 26°C / 18°C
- Altimeter
- 29.88 inHg
Obs: 2026-09-01T08:00:00.000Z
Raw METAR
METAR SKNV 010800Z AUTO VRB02KT CAVOK 26/18 Q1012
local_airport Airport
NVA · SKNV · Neiva, CO
Departure
Neiva, CO
Obs: 2026-09-01T08:00:00.000Z
METAR SKNV 010800Z AUTO VRB02KT CAVOK 26/18 Q1012
| Date | Flight | Aircraft | Route | Takeoff | Landing | Duration | Dep Δ |
|---|---|---|---|---|---|---|---|
| 2026-07-26 | AVR4834 | 0AC3F8 | NVA → BOG | Jul 26, 20:35 UTC | Jul 26, 20:55 UTC | 20m | - |
| 2026-07-26 | EFY9045 | 0ACC60 | NVA → BOG | Jul 26, 19:20 UTC | Jul 26, 19:40 UTC | 20m | - |
| 2026-07-26 | AVR4816 | 0ACAC1 | NVA → BOG | Jul 26, 14:10 UTC | Jul 26, 14:30 UTC | 20m | - |
| 2026-07-26 | ARE4259 | E8042B | NVA → BOG | Jul 26, 04:30 UTC | Jul 26, 05:00 UTC | 30m | - |
| 2026-07-25 | EFY9047 | 0AC3F9 | NVA → BOG | Jul 25, 23:00 UTC | Jul 25, 23:25 UTC | 25m | - |
| 2026-07-25 | ARE4299 | E80238 | NVA → BOG | Jul 25, 21:05 UTC | Jul 25, 21:20 UTC | 15m | - |
| 2026-07-25 | AVR4834 | 0ACCAD | NVA → BOG | Jul 25, 20:30 UTC | Jul 25, 20:50 UTC | 20m | - |
| 2026-07-25 | EFY9045 | 0ACA34 | NVA → BOG | Jul 25, 18:40 UTC | Jul 25, 19:05 UTC | 25m | - |
| 2026-07-25 | AVR4816 | 0ACA89 | NVA → BOG | Jul 25, 14:15 UTC | Jul 25, 14:35 UTC | 20m | - |
| 2026-07-25 | EFY9041 | 0AC997 | NVA → BOG | Jul 25, 12:55 UTC | Jul 25, 13:15 UTC | 20m | - |
| 2026-07-25 | ARE4259 | E80219 | NVA → BOG | Jul 25, 04:25 UTC | Jul 25, 04:50 UTC | 25m | - |
| 2026-07-25 | EFY9043 | 0AC426 | NVA → BOG | Jul 25, 02:45 UTC | Jul 25, 03:10 UTC | 25m | - |
| 2026-07-25 | EFY9049 | 0ACA7D | NVA → BOG | Jul 25, 02:35 UTC | Jul 25, 03:05 UTC | 30m | - |
| 2026-07-25 | EFY9047 | 0AC956 | NVA → BOG | Jul 25, 00:30 UTC | Jul 25, 00:55 UTC | 25m | - |
| 2026-07-24 | ARE4299 | E80207 | NVA → BOG | Jul 24, 21:30 UTC | Jul 24, 21:50 UTC | 20m | - |
| 2026-07-24 | AVR4834 | 0AC3F8 | NVA → BOG | Jul 24, 20:40 UTC | Jul 24, 21:05 UTC | 25m | - |
| 2026-07-24 | EFY9045 | 0AC420 | NVA → BOG | Jul 24, 20:00 UTC | Jul 24, 20:30 UTC | 30m | - |
| 2026-07-24 | NSE8624 | 0AC19A | NVA → SVI | Jul 24, 17:45 UTC | Jul 24, 18:35 UTC | 50m | - |
| 2026-07-24 | AVR4816 | 0AC95A | NVA → BOG | Jul 24, 14:15 UTC | Jul 24, 14:35 UTC | 20m | - |
| 2026-07-24 | EFY9041 | 0AC3F9 | NVA → BOG | Jul 24, 12:45 UTC | Jul 24, 13:10 UTC | 25m | - |
| 2026-07-24 | ARE4259 | E8043E | NVA → BOG | Jul 24, 04:25 UTC | Jul 24, 04:35 UTC | 10m | - |
| 2026-07-23 | EFY9047 | 0AC420 | NVA → BOG | Jul 23, 22:50 UTC | Jul 23, 23:15 UTC | 25m | - |
| 2026-07-23 | ARE4299 | E80269 | NVA → BOG | Jul 23, 21:15 UTC | Jul 23, 21:30 UTC | 15m | - |
| 2026-07-23 | EFY9045 | 0AC3F8 | NVA → BOG | Jul 23, 19:05 UTC | Jul 23, 19:25 UTC | 20m | - |
| 2026-07-23 | ARE4259 | E8042C | NVA → BOG | Jul 23, 04:25 UTC | Jul 23, 04:55 UTC | 30m | - |
| Date | Flight | Aircraft | Route | Takeoff | Landing | Duration | Arr Δ |
|---|---|---|---|---|---|---|---|
| 2026-07-26 | EFY9046 | 0AC956 | BOG → NVA | Jul 26, 20:50 UTC | Jul 26, 21:10 UTC | 20m | - |
| 2026-07-26 | EFY9044 | 0ACC60 | BOG → NVA | Jul 26, 17:35 UTC | Jul 26, 17:55 UTC | 20m | - |
| 2026-07-25 | EFY9046 | 0AC3F9 | BOG → NVA | Jul 25, 21:10 UTC | Jul 25, 21:25 UTC | 15m | - |
| 2026-07-25 | EFY9044 | 0ACA34 | BOG → NVA | Jul 25, 17:05 UTC | Jul 25, 17:20 UTC | 15m | - |
| 2026-07-25 | EFY9042 | 0AC426 | BOG → NVA | Jul 25, 01:00 UTC | Jul 25, 01:10 UTC | 10m | - |
| 2026-07-25 | EFY9048 | 0ACA7D | BOG → NVA | Jul 25, 00:55 UTC | Jul 25, 01:10 UTC | 15m | - |
| 2026-07-24 | EFY9046 | 0AC956 | BOG → NVA | Jul 24, 22:45 UTC | Jul 24, 23:00 UTC | 15m | - |
| 2026-07-24 | NSE8625 | 0AC19A | SVI → NVA | Jul 24, 19:50 UTC | Jul 24, 20:30 UTC | 40m | - |
| 2026-07-24 | EFY9044 | 0AC420 | BOG → NVA | Jul 24, 18:20 UTC | Jul 24, 18:40 UTC | 20m | - |
| 2026-07-24 | NSE6760 | 0ACC95 | EOH → NVA | Jul 24, 12:40 UTC | Jul 24, 13:15 UTC | 35m | - |
| 2026-07-24 | EFY9040 | 0AC3F9 | BOG → NVA | Jul 24, 11:20 UTC | Jul 24, 11:30 UTC | 10m | - |
| 2026-07-24 | EFY9048 | 0AC420 | BOG → NVA | Jul 24, 00:30 UTC | Jul 24, 00:40 UTC | 10m | - |
| 2026-07-23 | EFY9046 | 0AC420 | BOG → NVA | Jul 23, 21:15 UTC | Jul 23, 21:30 UTC | 15m | - |
| 2026-07-23 | EFY9044 | 0AC3F8 | BOG → NVA | Jul 23, 17:25 UTC | Jul 23, 17:40 UTC | 15m | - |
| 2026-07-23 | EFY9048 | 0AC985 | BOG → NVA | Jul 23, 00:45 UTC | Jul 23, 01:05 UTC | 20m | - |
| 2026-07-22 | EFY9046 | 0ACA7D | BOG → NVA | Jul 22, 22:40 UTC | Jul 22, 22:55 UTC | 15m | - |
| 2026-07-22 | NSE8625 | 0AC345 | SVI → NVA | Jul 22, 21:20 UTC | Jul 22, 22:05 UTC | 45m | - |
| 2026-07-22 | NSE6760 | 0ACA80 | EOH → NVA | Jul 22, 13:45 UTC | Jul 22, 14:20 UTC | 35m | - |
| 2026-07-22 | EFY9040 | 0ACC60 | BOG → NVA | Jul 22, 11:15 UTC | Jul 22, 11:35 UTC | 20m | - |
| 2026-07-21 | EFY9046 | 0ACA34 | BOG → NVA | Jul 21, 21:40 UTC | Jul 21, 21:55 UTC | 15m | - |
| 2026-07-21 | EFY9040 | 0ACC60 | BOG → NVA | Jul 21, 11:15 UTC | Jul 21, 11:30 UTC | 15m | - |
| 2026-07-21 | EFY9048 | 0AC959 | BOG → NVA | Jul 21, 01:05 UTC | Jul 21, 01:20 UTC | 15m | - |
| 2026-07-20 | NSE8625 | 0ACB8A | SVI → NVA | Jul 20, 14:55 UTC | Jul 20, 15:35 UTC | 40m | - |
| 2026-07-20 | NSE6760 | 0ACA80 | EOH → NVA | Jul 20, 14:20 UTC | Jul 20, 14:50 UTC | 30m | - |
| 2026-07-20 | EFY9040 | 0ACA7D | BOG → NVA | Jul 20, 11:10 UTC | Jul 20, 11:30 UTC | 20m | - |